Page, AZ

5:35 PM MDT on July 24, 2016 (GMT -0600)
Page Municipal

Weather History for KPGA - November, 2012

Change the Weather History Date:

Monday, November 19, 2012

  Actual Average Record
Temperature  
Mean Temperature 50 °F -  
Max Temperature 61 °F 51 °F 65 °F (1977)
Min Temperature 39 °F 33 °F 19 °F (1969)
Degree Days  
Heating Degree Days 15    
Moisture  
Dew Point 32 °F    
Average Humidity 50    
Maximum Humidity 70    
Minimum Humidity 27    
Precipitation  
Precipitation 0.00 in - - ()
Sea Level Pressure  
Sea Level Pressure 30.21 in    
Wind  
Wind Speed 1 mph (NNE)    
Max Wind Speed 6 mph    
Max Gust Speed -    
Visibility 10 miles    
Events      
Averages and records for this station are not official NWS values.
T = Trace of Precipitation, MM = Missing Value Source: NWS Daily Summary

Daily Weather History Graph

Daily Weather History Graph

Search for Another Location

Airport or City:

Trip Planner

Search our weather history database for the weather conditions in past years. The results will help you decide how hot, cold, wet, or windy it might be!

Date:

Astronomy

Nov. 19, 2012 Rise Set
Actual Time 7:08 AM MST 5:13 PM MST
Civil Twilight 6:40 AM MST 5:41 PM MST
Nautical Twilight 6:09 AM MST 6:12 PM MST
Astronomical Twilight 5:38 AM MST 6:43 PM MST
Moon 12:17 PM MST (11/19) 11:40 PM MST (11/19)
Length of Visible Light 11h 00m
Length of Day
10h 04m
Waxing Crescent, 41% of the Moon is Illuminated
Nov 19
Waxing Crescent
Nov 20
First Quarter
Nov 28
Full
Dec 6
Last Quarter
Dec 13
New

Hourly Weather History & Observations

Time (MST) Temp. Windchill Dew Point Humidity Pressure Visibility Wind Dir Wind Speed Gust Speed Precip Events Conditions
12:53 AM 46.0 °F - 32.0 °F 58% 30.12 in 10.0 mi Calm Calm - N/A   Clear
1:53 AM 45.0 °F - 30.9 °F 58% 30.12 in 10.0 mi Calm Calm - N/A   Clear
2:53 AM 46.0 °F 44.8 °F 32.0 °F 58% 30.14 in 10.0 mi NW 3.5 mph - N/A   Clear
3:53 AM 44.1 °F - 30.9 °F 60% 30.14 in 10.0 mi Calm Calm - N/A   Clear
4:53 AM 42.1 °F - 30.9 °F 65% 30.17 in 10.0 mi Calm Calm - N/A   Clear
5:53 AM 43.0 °F 41.3 °F 30.9 °F 62% 30.19 in 10.0 mi SE 3.5 mph - N/A   Clear
6:53 AM 39.9 °F - 30.9 °F 70% 30.21 in 10.0 mi Calm Calm - N/A   Clear
7:53 AM 44.1 °F - 32.0 °F 63% 30.24 in 10.0 mi Calm Calm - N/A   Clear
8:53 AM 48.0 °F - 33.1 °F 56% 30.26 in 10.0 mi Calm Calm - N/A   Clear
9:53 AM 50.0 °F - 32.0 °F 50% 30.27 in 10.0 mi Calm Calm - N/A   Clear
10:53 AM 53.1 °F - 33.1 °F 47% 30.26 in 10.0 mi North 4.6 mph - N/A   Clear
11:53 AM 54.0 °F - 33.1 °F 45% 30.24 in 10.0 mi North 5.8 mph - N/A   Clear
12:53 PM 57.0 °F - 33.1 °F 40% 30.21 in 10.0 mi NNW 3.5 mph - N/A   Clear
1:53 PM 57.9 °F - 34.0 °F 41% 30.19 in 10.0 mi North 5.8 mph - N/A   Clear
2:53 PM 60.1 °F - 34.0 °F 38% 30.18 in 10.0 mi NNW 5.8 mph - N/A   Clear
3:53 PM 60.1 °F - 33.1 °F 36% 30.18 in 10.0 mi NNE 3.5 mph - N/A   Clear
4:53 PM 57.9 °F - 33.1 °F 39% 30.20 in 10.0 mi Calm Calm - N/A   Clear
5:53 PM 55.0 °F - 33.1 °F 43% 30.21 in 10.0 mi South 3.5 mph - N/A   Clear
6:53 PM 54.0 °F - 33.1 °F 45% 30.23 in 10.0 mi SSE 3.5 mph - N/A   Clear
7:53 PM 50.0 °F - 33.1 °F 52% 30.24 in 7.0 mi Calm Calm - N/A   Clear
8:53 PM 50.0 °F - 33.1 °F 52% 30.24 in 9.0 mi Calm Calm - N/A   Clear
9:53 PM 48.0 °F - 28.0 °F 46% 30.25 in 10.0 mi SE 4.6 mph - N/A   Clear
10:53 PM 46.9 °F - 30.9 °F 54% 30.23 in 8.0 mi Calm Calm - N/A   Clear
11:53 PM 44.1 °F - 30.0 °F 58% 30.24 in 7.0 mi Calm Calm - N/A   Clear